Location: Cerda�ola
(41.4919°N, 2.1403°E)
Time: 01:49:45
(UTC+00:00)

USA 234 - Pass Details

Date: 29 March 2020
Orbit: 1102 x 1106 km, 123.0° (Epoch: 14 May)

Event Time Altitude Azimuth Distance (km) Brightness Sun altitude
Rises 19:08:09 0° 48° (NE) 3,925 5.8 -10.8°
Reaches altitude 10° 19:10:40 10° 51° (NE) 2,965 5.2 -11.3°
Maximum altitude 19:17:11 69° 135° (SE) 1,171 3.2 -12.4°
Drops below altitude 10° 19:23:42 10° 218° (SW) 2,955 5.8 -13.6°
Sets 19:26:11 0° 221° (SW) 3,911 6.5 -14.1°
